Location: Arbon
(43.0005°N, 0.7472°E)
Time: 10:37:52
(UTC+00:00)

SR - Pass Details

Date: 04 December 2020
Orbit: 575 x 880 km, 66.7° (Epoch: 21 January)

Event Time Altitude Azimuth Distance (km) Brightness Sun altitude
Rises 17:04:23 0° 214° (SW) 2,798 ? -7.6°
Reaches altitude 10° 17:06:33 10° 217° (SW) 1,923 ? -8.0°
Maximum altitude 17:10:51 74° 302° (WNW) 650 ? -8.7°
Drops below altitude 10° 17:15:30 10° 28° (NNE) 2,076 ? -9.5°
Enters shadow 17:16:29 - 29° (NNE) 2,466 ? -9.7°
Sets 17:17:56 0° 30° (NNE) 3,042 - -9.9°
